Terminal Aerodrome Forecast
Issued by NWS

Home | Current Version | Previous Version | Text Only | Print | Product List | Glossary On
Versions: 1 2 3 4 5 6 7 8 9 10 11 12 13 14 15 16
000
FTUS43 KMQT 310740 AAA
TAFSAW
TAF AMD
KSAW 310740Z 3108/0106 VRB03KT 4SM BR FEW150
     FM311300 23003KT P6SM FEW150
     FM311700 20012KT P6SM SKC
     FM010100 20005KT P6SM SKC=

USA.gov is the U.S. government's official web portal to all federal, state and local government web resources and services.